Location: Harwich
(41.7160°N, 69.9939°W)
Time: 10:32:57
(UTC+01:00)

Vanguard 3 - All Passes

Search period start: 31 January 2023 00:00
Search period end: 10 February 2023 00:00
Orbit: 509 x 3252 km, 33.4° (Epoch: 30 January)

Date Brightness Start Highest point End Pass type
(mag) Time Alt. Az. Time Alt. Az. Time Alt. Az.
31 Jan - 00:57:58 10° SW 01:07:57 46° SSE 01:23:53 10° E visible
31 Jan - 03:08:39 10° WSW 03:22:00 64° S 03:41:17 10° E visible
31 Jan - 05:21:28 10° W 05:37:42 57° SSW 05:56:38 10° SE visible
31 Jan - 07:36:46 10° W 07:52:40 34° SW 08:07:59 10° SSE visible
31 Jan - 23:44:29 10° SSW 23:52:21 31° SE 00:04:31 10° E visible
01 Feb - 01:53:39 10° WSW 02:04:50 58° SSE 02:22:38 10° E visible
01 Feb - 04:05:22 10° W 04:19:49 62° S 04:39:17 10° ESE visible
01 Feb - 06:19:04 10° W 06:35:20 45° SSW 06:52:57 10° SE visible
01 Feb - 08:37:03 10° W 08:49:15 21° SW 09:00:50 10° S visible
01 Feb - 22:32:32 10° SSE 22:37:35 17° SE 22:44:16 10° E daylight
02 Feb - 00:39:21 10° SW 00:48:30 47° SSE 01:03:38 10° E visible
02 Feb - 02:49:55 10° WSW 03:02:15 63° S 03:21:05 10° ESE visible
02 Feb - 05:02:25 10° W 05:17:38 54° SSW 05:36:34 10° SE visible
02 Feb - 07:17:32 10° W 07:32:30 31° SW 07:47:48 10° SSE visible
02 Feb - 23:25:50 10° SSW 23:33:02 32° SE 23:44:25 10° E visible
03 Feb - 01:35:03 10° WSW 01:45:20 58° SSE 02:02:20 10° E visible
03 Feb - 03:46:32 10° W 03:59:58 60° S 04:19:06 10° ESE visible
03 Feb - 05:59:57 10° W 06:15:13 42° SSW 06:32:45 10° SSE visible
03 Feb - 08:18:16 10° W 08:29:10 18° SW 08:39:58 10° S visible
03 Feb - 22:13:43 10° S 22:18:22 17° SE 22:24:35 10° E daylight
04 Feb - 00:20:48 10° SW 00:29:10 47° SSE 00:43:22 10° E visible
04 Feb - 02:31:16 10° WSW 02:42:39 62° S 03:00:46 10° ESE visible
04 Feb - 04:43:30 10° W 04:57:40 51° SSW 05:16:17 10° SE visible
04 Feb - 06:58:30 10° W 07:12:22 28° SW 07:27:17 10° SSE visible
04 Feb - 23:07:15 10° SSW 23:13:50 32° SE 23:24:22 10° E visible
05 Feb - 01:16:32 10° WSW 01:25:55 58° S 01:41:59 10° E visible
05 Feb - 03:27:48 10° W 03:40:12 57° S 03:58:44 10° ESE visible
05 Feb - 05:41:00 10° W 05:55:09 38° SSW 06:12:17 10° SSE visible
05 Feb - 07:59:58 10° WSW 08:09:06 16° SW 08:18:29 10° SSW visible
05 Feb - 21:54:58 10° S 21:59:14 17° SE 22:04:57 10° E daylight
06 Feb - 00:02:20 10° SW 00:09:57 47° SSE 00:23:07 10° E visible
06 Feb - 02:12:41 10° WSW 02:23:07 60° S 02:40:22 10° ESE visible
06 Feb - 04:24:41 10° W 04:37:45 47° SSW 04:55:48 10° SE visible
06 Feb - 06:39:42 10° W 06:52:18 25° SW 07:06:25 10° S night (unlit)
06 Feb - 22:48:45 10° SSW 22:54:44 32° SSE 23:04:22 10° E daylight
07 Feb - 00:58:04 10° WSW 01:06:39 56° S 01:21:38 10° E visible
07 Feb - 03:09:09 10° W 03:20:32 54° SSW 03:38:13 10° ESE visible
07 Feb - 05:22:12 10° W 05:35:09 35° SSW 05:51:34 10° SSE visible
07 Feb - 07:42:29 10° WSW 07:49:08 13° SW 07:56:02 10° SSW night (unlit)
07 Feb - 21:36:18 10° S 21:40:12 17° SE 21:45:23 10° ESE daylight
07 Feb - 23:43:54 10° SW 23:50:51 47° SSE 00:02:55 10° E visible
08 Feb - 01:54:11 10° WSW 02:03:43 57° S 02:19:53 10° ESE visible
08 Feb - 04:05:59 10° W 04:17:58 43° SSW 04:35:07 10° SE visible
08 Feb - 06:21:12 10° W 06:32:19 22° SW 06:45:09 10° S night (unlit)
08 Feb - 22:30:18 10° SSW 22:35:44 32° SSE 22:44:27 10° E daylight
09 Feb - 00:39:39 10° WSW 00:47:28 55° S 01:01:16 10° ESE visible
09 Feb - 02:50:35 10° W 03:00:58 50° SSW 03:17:35 10° SE visible
09 Feb - 05:03:34 10° W 05:15:17 31° SSW 05:30:34 10° SSE visible
09 Feb - 21:17:41 10° S 21:21:13 17° SE 21:25:55 10° ESE daylight
09 Feb - 23:25:31 10° SW 23:31:50 46° SSE 23:42:47 10° E visible
